[[{"header":{"parameterUnit":"m.s-1","parameterCategory":1,"la1":30.2991,"la2":30.254,"lo1":-89.0895,"lo2":-89.0444,"dy":0.0017,"dx":0.0017,"nx":28,"ny":28,"refTime":"2024-08-28T09:00:00:Z","depth":0,"parameterNumber":2,"parameterNumberName":"U-component_of_WINDS"},"data":[0,0,0,0,0,0,0,0,0,0,0,0,0,0,0,0,0,0,0,0,0,0,0,0,0,0,0,0,0,0,0,0,0,0,0,0,0,0,0,0,0,0,0,0,0,0,0,0,0,0,0,0,0,0,0,0,0,0,-5.0338,-5.0338,0,-5.0406,-5.0407,-5.0408,-5.0394,-5.0392,-5.0391,-5.039,-5.0458,-5.0461,-5.0464,0,0,0,0,0,0,0,0,0,0,0,0,0,-5.0195,-5.0198,-5.0338,-5.0338,-5.0339,-5.0406,-5.0407,-5.0408,-5.0394,-5.0392,-5.0391,-5.0389,-5.0457,-5.0461,-5.0464,0,0,0,0,0,0,0,0,0,0,0,0,0,-5.026,-5.0199,-5.0337,-5.034,-5.0341,-5.0406,-5.0407,-5.0408,-5.0394,-5.0392,-5.039,-5.0389,-5.0456,-5.046,-5.0465,-5.053,0,0,-5.0479,-5.048,0,0,0,0,0,0,0,0,-5.0256,-5.0265,-5.0339,-5.034,-5.0341,-5.0389,-5.0382,-5.0449,-5.0395,-5.0374,-5.039,-5.0388,-5.0437,-5.0443,-5.046,-5.0533,-5.0536,-5.0479,-5.0482,-5.0484,-5.0485,0,0,0,0,0,0,0,-5.0252,-5.0262,-5.0365,-5.034,-5.0342,-5.0339,-5.0346,-5.0394,-5.0415,-5.0376,-5.0375,-5.0383,-5.0437,-5.0455,-5.0461,-5.0537,-5.0479,-5.0483,-5.0486,-5.0487,-5.067,-5.0672,0,0,0,0,0,0,-5.0246,-5.0258,-5.0362,-5.0367,-5.0293,-5.0343,-5.0351,-5.0376,-5.0414,-5.0419,-5.0385,-5.0382,-5.0449,-5.0456,-5.0463,-5.0542,-5.0484,-5.0488,-5.049,-5.0668,-5.067,-5.0673,0,0,0,0,0,0,-5.0243,-5.0256,-5.036,-5.0312,-5.0325,-5.0347,-5.0376,-5.0378,-5.0396,-5.0421,-5.0425,-5.0399,-5.0447,-5.0457,-5.0514,-5.0544,-5.049,-5.0494,-5.0665,-5.0669,-5.0672,-5.07,0,0,0,0,0,0,-5.0239,-5.0255,-5.0279,-5.0313,-5.0328,-5.0409,-5.0378,-5.0381,-5.0404,-5.0402,-5.0436,-5.044,-5.0447,-5.0508,-5.0519,-5.0549,-5.0497,-5.0663,-5.0667,-5.0671,-5.0696,-5.0704,-5.071,0,0,0,0,0,-5.0234,-5.0283,-5.028,-5.0293,-5.0359,-5.041,-5.0419,-5.0426,-5.0407,-5.0432,-5.0449,-5.0439,-5.0541,-5.0513,-5.0526,-5.0558,-5.0661,-5.0666,-5.067,-5.0693,-5.0702,-5.071,0,0,0,0,0,0,-5.025,-5.0288,-5.0284,-5.0346,-5.0376,-5.0408,-5.0439,-5.0435,-5.047,-5.0466,-5.0473,-5.0481,-5.0539,-5.0555,-5.0525,-5.0625,-5.0598,-5.0605,-5.0611,-5.062,-5.0627,-5.0619,-5.0501,0,0,0,0,0,-5.0262,-5.03,-5.0331,-5.0383,-5.0398,-5.0416,-5.0439,-5.0443,-5.0473,-5.0485,-5.0505,-5.0535,-5.0573,-5.0598,-5.0635,-5.0701,-5.0708,-5.073,-5.0737,-5.0742,-5.0747,-5.0784,-5.0793,-5.0689,-5.0689,-5.0689,0,0,-5.0284,-5.0309,-5.0333,-5.0387,-5.041,-5.045,-5.0426,-5.0469,-5.0499,-5.0491,-5.0545,-5.0563,-5.0596,-5.0658,-5.0686,-5.0673,-5.0779,-5.0748,-5.0753,-5.0754,-5.079,-5.0799,-5.0808,-5.0692,-5.0691,-5.0691,0,0,-5.0344,-5.0368,-5.0414,-5.0439,-5.0474,-5.0487,-5.0499,-5.0533,-5.0544,-5.06,-5.0595,-5.0632,-5.0698,-5.0722,-5.0743,-5.0819,-5.0811,-5.0832,-5.0865,-5.0901,-5.0909,-5.0916,-5.0942,-5.0951,-5.0838,-5.0838,-5.0838,0,-5.0367,-5.0427,-5.0438,-5.0482,-5.0506,-5.0503,-5.055,-5.0573,-5.0619,-5.0636,-5.0622,-5.0707,-5.0729,-5.0797,-5.0816,-5.0834,-5.0846,-5.0825,-5.0907,-5.0915,-5.0922,-5.0946,-5.0956,-5.084,-5.0839,-5.0839,-5.0839,0,-5.0452,-5.0495,-5.0528,-5.0573,-5.0602,-5.0647,-5.0665,-5.0693,-5.0696,-5.0711,-5.0769,-5.0797,-5.084,-5.0857,-5.086,-5.0926,-5.0917,-5.0906,-5.0878,-5.0933,-5.0956,-5.0966,-5.0842,-5.0842,-5.0841,-5.0841,0,0,-5.0519,-5.0574,-5.0585,-5.0607,-5.0649,-5.0682,-5.0729,-5.0772,-5.0795,-5.0829,-5.0867,-5.0927,-5.0917,-5.0941,-5.0948,-5.0979,-5.1037,-5.0964,-5.0965,-5.0974,-5.1111,-5.1117,-5.1127,-5.1035,-5.1036,-5.1038,-5.1107,0,-5.0581,-5.0662,-5.0676,-5.0747,-5.0786,-5.0788,-5.0828,-5.0859,-5.0876,-5.0912,-5.0931,-5.0971,-5.0957,-5.0971,-5.1003,-5.1023,-5.1064,-5.1019,-5.1069,-5.1071,-5.1056,-5.1139,-5.1145,-5.1209,-5.1117,-5.1118,-5.1119,0,-5.0663,-5.07,-5.0776,-5.0815,-5.0832,-5.0868,-5.091,-5.0945,-5.0981,-5.0991,-5.1021,-5.1025,-5.1074,-5.1049,-5.1116,-5.1085,-5.1108,-5.1122,-5.1124,-5.1126,-5.1095,-5.114,-5.1229,-5.1238,-5.1134,-5.1133,-5.1132,0,-5.0701,-5.0771,-5.0825,-5.0844,-5.0891,-5.0917,-5.0938,-5.0972,-5.0998,-5.1036,-5.1053,-5.1097,-5.1119,-5.1153,-5.1169,-5.1149,-5.1236,-5.1211,-5.1244,-5.1244,-5.1258,-5.1256,-5.1349,-5.1279,-5.1279,-5.1279,-5.1279,0,-5.0766,-5.0812,-5.0843,-5.0875,-5.0928,-5.0944,-5.0995,-5.1016,-5.1048,-5.1085,-5.1091,-5.1126,-5.1146,-5.1185,-5.1198,-5.1252,-5.1263,-5.1272,-5.1274,-5.127,-5.1268,-5.1281,-5.1276,-5.1281,-5.1281,-5.128,-5.128,0,-5.0815,-5.0838,-5.0897,-5.0939,-5.0951,-5.0987,-5.1023,-5.1055,-5.1075,-5.1122,-5.1134,-5.1163,-5.121,-5.1231,-5.1287,-5.1297,-5.1357,-5.1358,-5.1345,-5.1345,-5.1376,-5.1371,-5.1476,-5.1491,-5.1415,-5.1416,-5.1416,0,-5.0853,-5.0888,-5.0935,-5.0961,-5.0983,-5.1025,-5.1053,-5.1073,-5.1101,-5.1147,-5.1174,-5.1222,-5.1259,-5.1333,-5.136,-5.1404,-5.1404,-5.1438,-5.141,-5.1405,-5.1401,-5.1398,-5.1401,-5.1441,-5.1442,-5.1443,-5.1443,0,-5.0918,-5.0929,-5.0968,-5.1013,-5.1046,-5.1082,-5.1117,-5.1138,-5.1164,-5.1196,-5.1244,-5.1274,-5.1334,-5.138,-5.1427,-5.1449,-5.145,-5.1453,-5.1462,-5.1455,-5.1445,-5.1449,-5.1355,-5.1449,-5.1448,-5.1448,-5.1448,-5.1447,-5.0961,-5.0993,-5.1031,-5.1076,-5.1105,-5.1139,-5.1172,-5.1197,-5.1237,-5.1287,-5.1297,-5.1348,-5.1387,-5.145,-5.1475,-5.1515,-5.1507,-5.1521,-5.1524,-5.1526,-5.1527,-5.1443,-5.1524,-5.1524,-5.1524,-5.1524,-5.1524,0,-5.1023,-5.105,-5.1091,-5.1141,-5.1177,-5.1178,-5.1219,-5.1248,-5.1293,-5.1329,-5.1368,-5.1424,-5.147,-5.1502,-5.155,-5.1576,-5.1578,-5.1587,-5.1583,-5.1589,-5.1533,-5.1519,-5.1585,-5.1585,-5.1585,-5.1585,-5.1585,-5.1585,-5.106,-5.1114,-5.113,-5.12,-5.1226,-5.1276,-5.1299,-5.133,-5.136,-5.1422,-5.1461,-5.1483,-5.1518,-5.1568,-5.1611,-5.162,-5.1636,-5.1645,-5.1653,-5.1599,-5.1592,-5.1586,-5.1573,-5.1649,-5.1649,-5.1705,-5.1706,-5.1706]},{"header":{"parameterUnit":"m.s-1","parameterCategory":1,"la1":30.2991,"la2":30.254,"lo1":-89.0895,"lo2":-89.0444,"dy":0.0017,"dx":0.0017,"nx":28,"ny":28,"refTime":"2024-08-28T09:00:00:Z","depth":0,"parameterNumber":3,"parameterNumberName":"V-component_of_WINDS"},"data":[0,0,0,0,0,0,0,0,0,0,0,0,0,0,0,0,0,0,0,0,0,0,0,0,0,0,0,0,0,0,0,0,0,0,0,0,0,0,0,0,0,0,0,0,0,0,0,0,0,0,0,0,0,0,0,0,0,0,3.6109,3.6109,0,3.6128,3.6128,3.6128,3.6171,3.6172,3.6173,3.6174,3.6187,3.6187,3.6186,0,0,0,0,0,0,0,0,0,0,0,0,0,3.6105,3.6105,3.6109,3.6109,3.6109,3.6128,3.6128,3.6128,3.6171,3.6172,3.6173,3.6174,3.6187,3.6187,3.6186,0,0,0,0,0,0,0,0,0,0,0,0,0,3.6114,3.6105,3.6108,3.6133,3.6135,3.6127,3.6128,3.6128,3.6171,3.6172,3.6174,3.6175,3.6188,3.6187,3.6186,3.6154,0,0,3.6184,3.6184,0,0,0,0,0,0,0,0,3.6113,3.6114,3.6129,3.6131,3.6134,3.6149,3.6132,3.6137,3.617,3.6157,3.6174,3.6175,3.6173,3.6173,3.6174,3.6155,3.6156,3.6184,3.6183,3.6183,3.6183,0,0,0,0,0,0,0,3.6113,3.6113,3.6116,3.6129,3.6132,3.6142,3.6144,3.6133,3.6157,3.6158,3.6162,3.6164,3.6174,3.6174,3.6174,3.6156,3.6184,3.6183,3.6183,3.6182,3.6113,3.6112,0,0,0,0,0,0,3.6109,3.6112,3.6115,3.6116,3.6127,3.614,3.6144,3.6142,3.6157,3.6161,3.6162,3.6166,3.6175,3.6175,3.6175,3.6139,3.6183,3.6182,3.6182,3.6114,3.6113,3.6111,0,0,0,0,0,0,3.6109,3.6109,3.6115,3.6115,3.6117,3.6139,3.6137,3.6142,3.6142,3.616,3.6164,3.6158,3.6176,3.6176,3.616,3.614,3.6182,3.6181,3.6116,3.6114,3.6112,3.6067,0,0,0,0,0,0,3.6109,3.6109,3.6097,3.6115,3.6117,3.61,3.6136,3.6141,3.6141,3.6146,3.6157,3.6161,3.6177,3.6161,3.6159,3.614,3.6181,3.6118,3.6115,3.6113,3.607,3.6064,3.6058,0,0,0,0,0,3.6108,3.6082,3.6097,3.6097,3.6104,3.6099,3.61,3.6121,3.614,3.6128,3.614,3.616,3.6143,3.6159,3.6157,3.6138,3.6119,3.6116,3.6113,3.6073,3.6065,3.6058,0,0,0,0,0,0,3.6059,3.6085,3.6101,3.608,3.6088,3.6106,3.6092,3.6111,3.6111,3.6115,3.614,3.6142,3.6122,3.6129,3.6146,3.6108,3.6134,3.6131,3.6105,3.6097,3.6091,3.6089,3.618,0,0,0,0,0,3.6047,3.6043,3.6065,3.6044,3.6047,3.6069,3.6068,3.6084,3.6091,3.6094,3.6105,3.6109,3.6105,3.6102,3.6099,3.6072,3.6075,3.6058,3.6052,3.6047,3.6043,3.6029,3.6022,3.6101,3.6101,3.6101,0,0,3.6019,3.6033,3.6028,3.6035,3.6042,3.6036,3.6071,3.6062,3.6058,3.6092,3.6078,3.6086,3.6093,3.6072,3.6063,3.6076,3.6022,3.6043,3.6038,3.6037,3.6025,3.6018,3.6011,3.6099,3.6099,3.6099,0,0,3.5967,3.5977,3.5961,3.5969,3.5981,3.5996,3.5992,3.6009,3.6016,3.6003,3.6029,3.6023,3.6015,3.602,3.6021,3.5973,3.5991,3.5971,3.5938,3.5924,3.5918,3.5913,3.5895,3.5889,3.5967,3.5967,3.5967,0,3.593,3.5924,3.595,3.5941,3.5943,3.5977,3.5961,3.5966,3.5975,3.5975,3.5991,3.5984,3.599,3.5971,3.5959,3.5959,3.5955,3.5969,3.5917,3.5912,3.5908,3.5891,3.5884,3.5965,3.5965,3.5965,3.5965,0,3.5879,3.5874,3.586,3.5871,3.5871,3.5858,3.5882,3.5879,3.5896,3.5909,3.5896,3.5906,3.5907,3.5903,3.5918,3.5886,3.5894,3.5913,3.594,3.5897,3.5882,3.5876,3.5961,3.5962,3.5963,3.5963,0,0,3.5793,3.5821,3.5815,3.5821,3.5838,3.5834,3.5823,3.5826,3.5823,3.5828,3.5819,3.5813,3.5832,3.5833,3.5849,3.5838,3.5799,3.5859,3.5859,3.5847,3.5764,3.5749,3.5741,3.5812,3.5811,3.5811,3.5763,0,3.5743,3.5727,3.5752,3.573,3.5726,3.5759,3.5749,3.5758,3.5771,3.5768,3.5781,3.5777,3.5802,3.5803,3.5793,3.5806,3.5783,3.581,3.5802,3.5802,3.5798,3.5733,3.5716,3.5671,3.5757,3.5756,3.5756,0,3.5682,3.5688,3.5666,3.5686,3.5685,3.5676,3.5681,3.5679,3.5689,3.5699,3.5702,3.5723,3.5712,3.574,3.5725,3.5743,3.5742,3.5748,3.5747,3.5745,3.5775,3.5729,3.5657,3.565,3.5747,3.5747,3.5748,0,3.5621,3.5623,3.5611,3.5615,3.5638,3.5631,3.5639,3.5652,3.5652,3.5656,3.5657,3.5659,3.566,3.5661,3.5681,3.5699,3.5664,3.5693,3.5671,3.567,3.566,3.566,3.5586,3.5661,3.5661,3.5661,3.5662,0,3.5562,3.5547,3.5584,3.5576,3.5561,3.5589,3.5573,3.5585,3.5596,3.559,3.5619,3.5612,3.564,3.5637,3.5652,3.5638,3.5638,3.5645,3.5649,3.5642,3.5641,3.564,3.5643,3.566,3.566,3.566,3.5661,0,3.549,3.5515,3.5503,3.5527,3.5533,3.552,3.554,3.5533,3.5549,3.5541,3.5541,3.5565,3.5562,3.5584,3.5584,3.5595,3.5573,3.5583,3.5569,3.5572,3.5549,3.555,3.547,3.5461,3.5543,3.5542,3.5542,0,3.545,3.544,3.5464,3.5463,3.5471,3.5469,3.5471,3.5499,3.55,3.5512,3.5504,3.5504,3.5506,3.55,3.5517,3.5518,3.5527,3.5499,3.5527,3.5521,3.5526,3.5526,3.5525,3.5493,3.5492,3.5491,3.549,0,3.5377,3.539,3.5392,3.5399,3.5401,3.5407,3.5415,3.5412,3.5443,3.5442,3.5441,3.5443,3.5445,3.5445,3.545,3.5457,3.5478,3.5482,3.5477,3.5468,3.5461,3.5464,3.5552,3.5483,3.5484,3.5484,3.5485,3.5485,3.5319,3.5312,3.5328,3.533,3.534,3.5347,3.5342,3.5359,3.5359,3.5365,3.5381,3.5378,3.539,3.5399,3.5405,3.5401,3.5415,3.5407,3.5405,3.5403,3.5398,3.5463,3.5402,3.5403,3.5403,3.5403,3.5403,0,3.5247,3.5259,3.5261,3.5273,3.5274,3.5297,3.5307,3.5306,3.5304,3.5314,3.5316,3.5316,3.5316,3.5334,3.5336,3.533,3.534,3.533,3.533,3.5331,3.5386,3.539,3.5322,3.5322,3.5322,3.5322,3.5322,3.5322,3.5209,3.5198,3.5214,3.5208,3.5221,3.5219,3.5223,3.523,3.5239,3.5238,3.5239,3.5252,3.5265,3.5269,3.527,3.5276,3.5275,3.5261,3.5269,3.532,3.5327,3.5335,3.5339,3.5261,3.5261,3.5214,3.5214,3.5214]}]]